TimeEDT,TemperatureF,Dew PointF,Humidity,Sea Level PressureIn,VisibilityMPH,Wind Direction,Wind SpeedMPH,Gust SpeedMPH,PrecipitationIn,Events,Conditions,WindDirDegrees,DateUTC
12:53 AM,64.9,60.1,84,30.18,10.0,Calm,Calm,-,N/A,,Clear,0,2013-07-30 04:53:00
1:53 AM,64.9,61.0,87,30.18,10.0,Calm,Calm,-,N/A,,Overcast,0,2013-07-30 05:53:00
2:53 AM,63.0,61.0,93,30.18,10.0,SSW,3.5,-,N/A,,Clear,200,2013-07-30 06:53:00
3:53 AM,61.0,59.0,93,30.18,10.0,Calm,Calm,-,N/A,,Clear,0,2013-07-30 07:53:00
4:53 AM,60.1,57.9,93,30.18,7.0,Calm,Calm,-,N/A,,Clear,0,2013-07-30 08:53:00
5:09 AM,60.8,60.8,100,30.20,3.0,West,6.9,-,N/A,,Partly Cloudy,260,2013-07-30 09:09:00
5:53 AM,60.1,55.9,86,30.19,10.0,West,3.5,-,N/A,,Clear,260,2013-07-30 09:53:00
6:53 AM,60.1,57.0,90,30.22,10.0,Calm,Calm,-,N/A,,Mostly Cloudy,0,2013-07-30 10:53:00
7:53 AM,64.0,57.0,78,30.23,10.0,Calm,Calm,-,N/A,,Partly Cloudy,0,2013-07-30 11:53:00
8:53 AM,68.0,57.0,68,30.24,10.0,Calm,Calm,-,N/A,,Clear,0,2013-07-30 12:53:00
9:53 AM,71.1,59.0,66,30.24,10.0,South,3.5,-,N/A,,Clear,170,2013-07-30 13:53:00
10:53 AM,75.9,57.0,52,30.22,10.0,Calm,Calm,-,N/A,,Mostly Cloudy,0,2013-07-30 14:53:00
11:53 AM,78.1,55.9,46,30.22,10.0,SSW,5.8,-,N/A,,Partly Cloudy,200,2013-07-30 15:53:00
12:53 PM,78.1,55.0,45,30.21,10.0,South,9.2,-,N/A,,Partly Cloudy,170,2013-07-30 16:53:00
1:53 PM,78.1,54.0,43,30.20,10.0,SE,6.9,-,N/A,,Clear,140,2013-07-30 17:53:00
2:53 PM,80.1,55.9,43,30.18,10.0,SSE,5.8,-,N/A,,Scattered Clouds,160,2013-07-30 18:53:00
3:53 PM,79.0,55.9,45,30.17,10.0,South,6.9,-,N/A,,Scattered Clouds,170,2013-07-30 19:53:00
4:53 PM,81.0,55.9,42,30.15,10.0,Calm,Calm,-,N/A,,Clear,0,2013-07-30 20:53:00
5:53 PM,80.1,55.9,43,30.15,10.0,WSW,11.5,-,N/A,,Clear,240,2013-07-30 21:53:00
6:53 PM,79.0,59.0,50,30.15,10.0,SSW,9.2,-,N/A,,Clear,200,2013-07-30 22:53:00
7:53 PM,75.0,62.1,64,30.15,10.0,Calm,Calm,-,N/A,,Clear,0,2013-07-30 23:53:00
8:53 PM,73.0,62.1,68,30.15,10.0,SW,6.9,-,N/A,,Clear,220,2013-07-31 00:53:00
9:53 PM,68.0,63.0,84,30.15,10.0,Calm,Calm,-,N/A,,Clear,0,2013-07-31 01:53:00
10:53 PM,68.0,63.0,84,30.16,10.0,Calm,Calm,-,N/A,,Mostly Cloudy,0,2013-07-31 02:53:00
11:53 PM,66.0,63.0,90,30.16,8.0,Calm,Calm,-,N/A,,Partly Cloudy,0,2013-07-31 03:53:00